Address 0x7e1e6a2c1d95db6ea14483c84c6243e09175a4c1 2

 
 
Txn Hash Method
Block
From
To
Value [Txn Fee]
0x4a4f3d6dae1b111f992f20f8622f42df1c2d302cce4ed7bb0a188bf0894df263Withdraw201279852021-10-12 6:59:18108 days 18 hrs ago0x7e1e6a2c1d95db6ea14483c84c6243e09175a4c1OUT Polygon: MATIC Token25 MATIC0.0009485730
0x0d41cea262d9b7420920f0452413111b1b250c6e82d0ae609731388edd0ba679Withdraw201278042021-10-12 6:53:04108 days 18 hrs ago0x7e1e6a2c1d95db6ea14483c84c6243e09175a4c1OUT USD Coin0 MATIC0.0012464130
0x3009ac70b874b54266619abe85778acf720fab6484f25f21d88ea9a845cb5c14Transfer201245472021-10-12 4:54:46108 days 20 hrs ago0x7e1e6a2c1d95db6ea14483c84c6243e09175a4c1OUT Maker: Dai Stablecoin0 MATIC0.0017189430
0x671d37d112c6a6bf55638375d6b85e0e2c80dabf589c05d5cdaa355e4ab73f1aSwap201244572021-10-12 4:51:38108 days 20 hrs ago0x7e1e6a2c1d95db6ea14483c84c6243e09175a4c1OUT Metamask: Swap Router25 MATIC0.03411961871
0x10351fe6f90765910bdb7c55ac197475451d4ae32785cc33eb06be2d3858ba87Transfer198967732021-10-06 5:41:32114 days 20 hrs ago0x26c5d282563d1e3b6b19682f8c7936f968c9cf59 IN 0x7e1e6a2c1d95db6ea14483c84c6243e09175a4c125 MATIC0.0006330
0xcf2b9300828c6f88fa13a07785db47cd39c2a52007d857925cb5395ae0fc13b8Transfer198447052021-10-04 20:25:17116 days 5 hrs ago0x26c5d282563d1e3b6b19682f8c7936f968c9cf59 IN 0x7e1e6a2c1d95db6ea14483c84c6243e09175a4c1200 MATIC0.0000589625322.807739658
0x4af71e0cb3922d4e43c05ae35a2069b563d31fa2483d5081c1cd9271a51dae63Swap196657472021-09-30 3:29:39120 days 22 hrs ago0x7e1e6a2c1d95db6ea14483c84c6243e09175a4c1OUT Metamask: Swap Router26 MATIC0.02605413114
0x057099d0b5d0e6cad3a9ae6de9025c5ea5b23b1d83787d59dbca94ef5470e9cbTransfer193105022021-09-20 12:06:27130 days 13 hrs ago0x35855e98df004a34de3699c0bdfd9028495d4927 IN 0x7e1e6a2c1d95db6ea14483c84c6243e09175a4c11 MATIC0.00031515
[ Download CSV Export 
Latest 25 internal transaction
Parent Txn Hash Block From To Value
0xdedb552905fcfaeb7490b203390dbbfe97240f3afaefadd7c1f00eff4d075d60237639622022-01-15 22:48:4413 days 3 hrs ago 0x3b2912228b75697d987c0c790bf19de35be943c40x7e1e6a2c1d95db6ea14483c84c6243e09175a4c125 MATIC
0xd4c7bb34583f8b8e31c1cab29455845dba69fab29f395ccd0ae0dda1b7b24b46199969592021-10-08 20:41:50112 days 5 hrs ago 0x3b2912228b75697d987c0c790bf19de35be943c40x7e1e6a2c1d95db6ea14483c84c6243e09175a4c125 MATIC
0x12fa22f44b1a27ca1da89ed98ce3e264cda4f9fbd50b9fd6f9ab4ce656d1e6db198428732021-10-04 19:14:56116 days 6 hrs ago 0x3b2912228b75697d987c0c790bf19de35be943c40x7e1e6a2c1d95db6ea14483c84c6243e09175a4c125 MATIC
0x6aa1904465ab236eab5d92c97bf7e8942220adac1604613b8ad9720d67b59384197146422021-10-01 10:25:03119 days 15 hrs ago 0x3b2912228b75697d987c0c790bf19de35be943c40x7e1e6a2c1d95db6ea14483c84c6243e09175a4c125 MATIC
0xcdf7fb5d17c76b2310482a669424ec73e513d451d0948437552be35b971b8398197146182021-10-01 10:24:11119 days 15 hrs ago 0x3b2912228b75697d987c0c790bf19de35be943c40x7e1e6a2c1d95db6ea14483c84c6243e09175a4c125 MATIC
0xcd42e31275e7f0a268447cbcd8a73401aa0342a61fccf02d0f996321dd4e80d8196733312021-09-30 8:26:13120 days 17 hrs ago 0x3b2912228b75697d987c0c790bf19de35be943c40x7e1e6a2c1d95db6ea14483c84c6243e09175a4c125 MATIC
0x817aa18d0e911f5c5d4ec86371bed4ad0e1777d529e6a7caa78079f05649ef04196698022021-09-30 6:08:35120 days 19 hrs ago 0x3b2912228b75697d987c0c790bf19de35be943c40x7e1e6a2c1d95db6ea14483c84c6243e09175a4c125 MATIC
0xa76caffb1626382294733e6e7f4591df98f10a88d69c67ce65b50381fbe33e4a196693502021-09-30 5:50:45120 days 20 hrs ago 0x3b2912228b75697d987c0c790bf19de35be943c40x7e1e6a2c1d95db6ea14483c84c6243e09175a4c125 MATIC
0xb9367a62ee64588e9f98acaef899a901df69af41e217580d7d165f1cc36636e8196675492021-09-30 4:42:17120 days 21 hrs ago 0x3b2912228b75697d987c0c790bf19de35be943c40x7e1e6a2c1d95db6ea14483c84c6243e09175a4c125 MATIC
0xb8d684eebbcc502a5e2b38a9e185e47fd69e5eb3899e738fa82113d0a665ad8b196670662021-09-30 4:21:23120 days 21 hrs ago 0x3b2912228b75697d987c0c790bf19de35be943c40x7e1e6a2c1d95db6ea14483c84c6243e09175a4c125 MATIC
0xfa1921bb9ba7cbeaf54907291bc4ffaca0b43a106dd91ec4ac97910edd799f0f196670532021-09-30 4:20:57120 days 21 hrs ago 0x3b2912228b75697d987c0c790bf19de35be943c40x7e1e6a2c1d95db6ea14483c84c6243e09175a4c125 MATIC
0x488541660d278a73c7676ed37550961ae1be3716e4b2ce8ef1c4aa2f2140da71196667532021-09-30 4:10:41120 days 21 hrs ago 0x3b2912228b75697d987c0c790bf19de35be943c40x7e1e6a2c1d95db6ea14483c84c6243e09175a4c125 MATIC
0x99ff16aff3a33f38ac4506b3e4c737c172560f36abcd88f21383ce017a304fe8196663452021-09-30 3:52:19120 days 21 hrs ago 0x3b2912228b75697d987c0c790bf19de35be943c40x7e1e6a2c1d95db6ea14483c84c6243e09175a4c125 MATIC
0x943b29dfdc4060ed5c724bc10b5edeb30f7b6f2f4fcdca4acbb425137eb6d004196643172021-09-30 2:29:42120 days 23 hrs ago 0x3b2912228b75697d987c0c790bf19de35be943c40x7e1e6a2c1d95db6ea14483c84c6243e09175a4c125 MATIC
0xc20216bb0fb845aaefd97fa234250b7d80df62bafb53cbeb5a2421785e7dbaf8196635342021-09-30 1:58:32120 days 23 hrs ago 0x3b2912228b75697d987c0c790bf19de35be943c40x7e1e6a2c1d95db6ea14483c84c6243e09175a4c125 MATIC
0x477501ac83d39650bc984659f79a27d41f714fd38796b7e9bc4f18b16d314adf196635342021-09-30 1:58:32120 days 23 hrs ago 0x3b2912228b75697d987c0c790bf19de35be943c40x7e1e6a2c1d95db6ea14483c84c6243e09175a4c125 MATIC
0x3a14c189326a42a43f9f3d64dd3bf2fbad216984f0f267b4faba9ac8030ff913196633712021-09-30 1:52:58120 days 23 hrs ago 0x3b2912228b75697d987c0c790bf19de35be943c40x7e1e6a2c1d95db6ea14483c84c6243e09175a4c125 MATIC
0xe3e1dfe208a145a252846f62602afb303ca839600a760d55bd84a114d5784b45196618792021-09-30 0:50:53121 days 59 mins ago 0x3b2912228b75697d987c0c790bf19de35be943c40x7e1e6a2c1d95db6ea14483c84c6243e09175a4c125 MATIC
0x87540fe7536b1bfb8812e3d8163632dd675400abaddb33719a8d125f78047810196618742021-09-30 0:50:43121 days 1 hr ago 0x3b2912228b75697d987c0c790bf19de35be943c40x7e1e6a2c1d95db6ea14483c84c6243e09175a4c125 MATIC
0x0727f48ab47fa8eeaef528b4c8af18e8cb7fa982a2af14660f34bae31b19831b196615532021-09-30 0:39:41121 days 1 hr ago 0x3b2912228b75697d987c0c790bf19de35be943c40x7e1e6a2c1d95db6ea14483c84c6243e09175a4c125 MATIC
0x418c40152d2e9f94823c83c5359d36160d538fbfa3de1508af9b6d65ee4626f4196614502021-09-30 0:32:39121 days 1 hr ago 0x3b2912228b75697d987c0c790bf19de35be943c40x7e1e6a2c1d95db6ea14483c84c6243e09175a4c125 MATIC
0xb49de1258dc2fc1ae712f86330de1600aff431cace45081feffb3f2022095c9f196614022021-09-30 0:30:15121 days 1 hr ago 0x3b2912228b75697d987c0c790bf19de35be943c40x7e1e6a2c1d95db6ea14483c84c6243e09175a4c125 MATIC
0x3283c85b8e743c3c926e40321200e77f5880b3f8bd3a059b13e78581edaa9501196597532021-09-29 23:20:28121 days 2 hrs ago 0x3b2912228b75697d987c0c790bf19de35be943c40x7e1e6a2c1d95db6ea14483c84c6243e09175a4c125 MATIC
0x4a3624c471db5eb3a4bd5e36b7822aa56d1ec09174aa1f3144f54a4b0867b3be196595552021-09-29 23:12:44121 days 2 hrs ago 0x3b2912228b75697d987c0c790bf19de35be943c40x7e1e6a2c1d95db6ea14483c84c6243e09175a4c125 MATIC
0x393c51ea88a66fb8a2388ffbbb6896267d256a3a92cb24927d492232a79b3f01196595042021-09-29 23:09:46121 days 2 hrs ago 0x3b2912228b75697d987c0c790bf19de35be943c40x7e1e6a2c1d95db6ea14483c84c6243e09175a4c125 MATIC
[ Download CSV Export 
Loading

Contract Name:
0 MATIC

Compiler Version
0

Optimization Enabled:
0 MATIC

Other Settings:
-NA-
Block Transaction Gas Used Reward
Age Block Fee Address BC Fee Address Voting Power Jailed Incoming
Block Uncle Number Difficulty Gas Used Reward
Loading
Loading
Make sure to use the "Vote Down" button for any spammy posts, and the "Vote Up" for interesting conversations.